Location: Nianha
(10.8000°N, 4.6333°W)
Time: 19:57:19
(UTC+00:00)

ASTRO E2 - Pass Details

Date: 14 November 2019
Orbit: 511 x 517 km, 31.4° (Epoch: 21 January)

Event Time Altitude Azimuth Distance (km) Brightness Sun altitude
Exits shadow 05:19:47 13° 331° (NNW) 1,531 4.7 -13.5°
Maximum altitude 05:22:42 29° 28° (NNE) 952 4.1 -12.8°
Drops below altitude 10° 05:26:09 10° 89° (E) 1,714 6.6 -12.0°
Sets 05:28:35 0° 101° (E) 2,598 8.4 -11.4°
